Wetbulb
52.51 50.92 49.45 49.41 49.01 48.53 48.18 47.70 47.71 47.62 48.21 49.02 48.36 49.25 48.91 52.16 57.01 58.77 60.31 62.37 63.20 65.12 66.29 67.36 66.75 65.60 64.78 63.51 63.12 62.77 62.86 62.90 62.96 62.83 62.37 62.22 62.76 62.83 62.96 63.05 64.19 64.93 65.53
50.56 49.24 48.41 48.35 47.53 47.59 46.84 46.93 46.35 46.72 46.33 46.77 46.29 47.98 48.22 50.49 55.88 57.51 58.33 59.87 61.04 62.51 63.77 64.28 64.38 63.76 62.86 61.52 60.44 60.32 60.23 60.18 60.53 60.77 60.50 60.48 60.49 60.64 61.23 61.61 62.46 63.22 63.88
49.29 48.51 47.96 46.82 46.41 46.59 46.51 46.27 46.22 45.95 44.44 45.16 45.87 47.25 48.65 51.93 54.77 55.03 55.30 55.83 57.09 58.85 59.85 60.18 60.66 60.49 60.40 59.99 58.94 58.47 58.19 57.87 57.92 57.62 57.81 58.21 58.32 58.51 58.73 59.78 60.58 61.30 61.98
48.51 47.75 47.01 45.65 46.17 45.79 45.70 45.39 45.06 43.19 42.56 43.62 44.29 47.65 52.78 54.63 53.49 52.46 51.80 51.83 51.99 53.07 56.32 56.60 56.37 56.29 56.78 56.89 56.88 56.78 56.38 55.75 55.92 56.13 56.08 56.07 56.19 56.38 56.95 58.17 58.89 59.58 60.33
48.12 47.05 46.00 45.46 45.53 45.46 45.25 45.51 43.19 42.18 42.62 44.87 46.66 49.06 51.76 51.72 51.94 51.73 50.77 50.62 51.33 51.35 52.09 53.01 52.92 52.66 53.56 54.53 55.08 55.34 55.02 54.65 54.48 54.62 54.98 54.93 55.18 55.35 55.97 56.45 57.35 58.23 58.66
47.13 46.23 45.35 44.43 44.57 44.56 44.39 43.42 42.67 43.04 43.91 47.38 47.89 44.97 45.04 46.08 47.54 48.40 49.10 49.18 48.86 48.88 48.19 45.79 44.82 47.72 50.76 51.39 51.75 52.54 53.37 53.89 53.72 53.54 53.19 53.46 53.81 54.22 54.72 54.88 55.63 57.07 57.88
46.26 45.24 44.22 43.56 43.33 42.90 42.95 42.31 41.38 41.83 42.15 42.99 43.30 42.68 42.44 42.48 41.85 42.79 44.78 44.56 45.89 46.79 44.23 42.59 41.98 42.24 43.78 48.09 49.06 50.01 50.91 51.85 51.98 52.09 52.08 51.95 52.05 52.17 52.52 53.52 54.59 55.73 56.48
45.26 44.88 43.04 41.90 41.46 40.94 41.53 41.65 41.21 40.04 39.94 40.41 42.64 41.58 39.58 41.59 41.04 41.03 42.19 42.34 41.43 44.20 42.03 41.15 41.10 41.57 42.22 42.92 44.93 46.31 46.88 48.64 50.50 51.00 50.40 50.59 50.98 51.02 51.35 51.38 52.01 52.70 54.10
44.63 43.57 42.27 41.17 40.33 40.03 39.56 39.36 40.08 39.84 38.65 39.00 40.14 42.37 38.73 37.08 38.22 39.76 38.67 39.89 39.81 40.00 39.82 39.55 39.99 40.99 41.78 42.00 42.48 42.39 44.62 45.91 48.34 49.42 49.76 49.79 49.99 49.97 49.65 49.84 50.12 51.05 51.57
43.20 43.29 43.11 42.05 41.50 41.10 40.34 40.48 40.01 39.42 39.93 37.64 38.28 38.92 38.80 40.22 37.59 34.92 37.27 37.35 39.12 38.91 38.56 39.00 38.81 40.06 40.49 40.49 42.46 43.09 43.13 43.11 44.03 45.48 46.31 47.28 47.52 47.60 48.01 47.74 48.48 49.16 49.64
42.80 43.40 42.47 41.25 40.32 39.90 38.59 38.94 39.34 38.86 38.60 38.95 38.03 37.15 36.31 35.90 36.68 35.72 32.75 33.20 36.37 37.20 37.47 36.87 37.21 38.87 40.34 40.40 40.28 41.62 41.51 41.22 41.88 42.71 43.58 44.41 45.08 45.56 45.63 46.68 46.88 47.47 48.18
41.54 41.39 41.14 40.14 39.34 38.64 38.69 38.15 38.53 37.75 37.56 37.26 37.86 37.52 37.22 36.02 34.23 33.81 31.29 31.05 33.42 34.99 35.78 35.97 36.05 37.45 39.56 39.93 41.45 41.56 40.67 40.04 40.11 40.68 41.71 42.23 42.67 43.21 43.83 44.46 45.36 46.18 47.15
39.17 38.84 39.18 38.87 38.39 38.01 38.30 38.36 37.54 35.95 35.40 35.68 35.26 35.09 36.04 35.75 36.07 35.04 32.95 30.67 31.48 34.02 33.53 34.29 34.69 36.26 39.09 39.01 40.17 40.13 39.79 38.53 38.75 39.24 39.32 40.13 40.27 40.98 41.77 42.51 43.48 44.22 45.12
39.01 38.36 38.58 38.46 38.44 38.92 38.13 37.44 36.70 34.24 34.12 33.50 32.29 33.33 33.88 34.25 35.91 35.17 33.27 31.16 29.58 30.70 31.21 31.66 32.17 32.59 34.76 38.09 39.78 39.31 37.74 37.52 37.12 36.76 37.22 37.88 38.50 38.91 39.64 40.31 41.44 42.56 42.95
38.80 37.67 37.71 37.71 37.82 37.47 37.42 36.88 35.36 33.39 32.67 31.98 31.65 32.23 32.26 31.93 32.52 33.03 33.69 33.78 31.45 28.68 28.65 29.11 29.21 28.90 31.35 35.05 38.09 36.98 36.80 37.59 36.55 36.02 35.77 36.03 36.73 37.50 37.93 38.71 39.90 40.51 40.77
38.45 37.32 36.80 36.72 37.16 36.63 36.30 35.40 34.24 33.47 31.50 31.52 31.27 29.95 29.58 29.67 30.28 30.65 30.87 32.34 32.50 31.01 28.39 28.42 26.22 26.59 27.36 31.64 34.35 34.20 36.97 37.61 36.71 35.85 35.11 35.00 35.05 35.74 36.62 37.11 38.51 39.20 38.95
37.79 37.07 36.72 36.32 36.52 35.42 35.44 34.45 33.74 33.03 31.04 29.07 28.78 28.72 27.62 28.38 28.07 28.31 29.08 29.11 28.67 29.57 28.29 27.13 26.17 25.23 24.57 26.13 28.41 31.76 35.56 35.59 36.97 36.00 35.24 34.35 34.05 34.09 35.28 36.44 37.23 38.05 37.59
37.52 36.96 36.43 36.29 36.37 35.30 35.19 34.09 33.76 32.47 30.42 28.38 28.03 28.05 26.64 27.76 26.20 26.49 26.75 26.13 26.57 26.83 27.88 26.06 25.07 24.43 23.31 24.00 25.81 27.66 29.38 31.06 33.82 35.72 34.57 33.87 33.49 33.55 34.12 35.23 35.88 36.94 36.35
36.80 36.94 36.39 36.01 35.64 34.80 34.32 34.01 32.89 30.88 29.24 27.73 26.54 25.50 24.47 25.14 23.71 23.94 24.53 24.40 24.82 26.29 26.14 26.54 22.53 23.15 22.54 22.62 24.08 25.85 26.39 27.09 32.13 33.87 32.80 32.56 32.53 32.70 32.98 33.86 34.79 35.81 35.35
35.81 35.66 35.94 35.03 34.10 33.62 33.36 33.07 31.39 28.97 27.26 26.20 25.20 24.50 23.70 23.91 23.28 22.40 22.51 22.36 23.68 24.06 23.96 23.49 22.20 20.53 20.24 20.91 22.39 21.46 22.72 25.19 26.28 29.83 31.10 30.51 30.41 31.16 32.16 32.28 33.04 34.52 34.37
34.87 35.16 34.09 33.07 32.85 32.47 32.79 31.30 30.11 28.12 26.40 25.31 25.66 25.54 25.21 25.39 25.82 24.06 21.29 21.01 22.25 22.39 21.99 21.19 19.47 18.67 17.77 17.55 17.58 19.56 20.93 22.90 23.08 24.99 26.86 26.62 26.61 27.09 28.64 30.55 32.17 33.14 31.88
33.83 33.03 32.24 32.13 31.70 32.35 33.87 32.59 29.92 27.65 26.68 25.63 25.08 26.17 26.94 27.61 26.22 26.23 25.15 24.15 21.97 20.37 19.25 18.47 17.11 16.31 16.70 17.42 18.02 18.72 20.07 22.24 21.60 24.20 24.20 23.17 23.98 23.40 25.96 29.20 31.91 31.43 30.69
32.45 31.78 31.49 31.39 29.89 30.99 33.84 33.51 30.75 28.29 27.07 26.35 25.79 24.88 24.36 25.75 24.65 23.61 23.89 23.88 23.87 23.30 20.36 19.06 17.03 16.37 17.20 17.19 17.62 18.38 20.16 19.36 19.32 21.13 22.50 19.56 21.15 18.76 22.88 26.77 30.41 31.68 30.00
31.69 31.09 30.20 30.11 30.46 30.60 33.27 32.67 30.39 26.91 25.09 23.54 22.84 21.84 20.76 18.40 19.83 18.81 16.70 14.09 11.30 12.15 14.45 19.32 16.52 13.36 14.30 16.57 17.41 20.19 20.70 18.94 18.32 19.27 19.72 18.02 19.55 17.68 18.73 21.25 27.70 29.66 29.25
30.44 29.64 29.49 29.42 29.53 30.44 33.19 31.46 26.29 23.02 21.02 18.77 17.54 17.21 16.82 15.98 22.68 22.32 14.00 11.99 9.68 10.44 15.50 23.97 22.87 23.99 23.71 23.38 22.07 21.08 19.49 19.41 15.60 15.58 16.48 18.49 17.48 17.83 17.54 18.15 21.46 25.14 27.47
29.89 29.44 28.18 28.74 29.60 29.64 31.90 29.52 24.99 21.37 17.56 16.28 16.23 16.21 21.08 17.58 23.79 22.07 11.95 11.52 10.86 7.54 7.00 10.87 10.65 12.94 12.08 17.41 19.55 11.32 17.70 17.88 13.25 14.62 15.70 17.53 16.53 17.29 16.66 19.16 18.32 18.96 20.26
MSLP
1017.13 1017.43 1017.78 1018.17 1018.40 1018.59 1018.71 1018.97 1019.04 1019.33 1019.59 1019.73 1019.87 1019.85 1020.00 1020.11 1020.14 1020.12 1020.17 1020.02 1019.76 1019.60 1019.46 1019.62 1020.07 1020.38 1020.66 1020.94 1021.12 1021.05 1021.00 1021.02 1021.08 1020.97 1020.80 1020.67 1020.57 1020.62 1020.59 1020.32 1020.20 1020.34 1020.18
1017.08 1017.58 1018.02 1018.39 1018.78 1018.95 1019.21 1019.27 1019.46 1019.75 1020.06 1020.05 1020.23 1020.29 1020.29 1020.34 1020.53 1020.56 1020.59 1020.68 1020.58 1020.48 1020.45 1020.45 1020.57 1020.88 1021.08 1021.17 1021.57 1021.67 1021.61 1021.60 1021.59 1021.52 1021.46 1021.22 1021.10 1020.93 1020.70 1020.40 1020.28 1020.13 1020.28
1017.06 1017.58 1018.15 1018.73 1019.14 1019.31 1019.46 1019.56 1019.89 1020.10 1020.40 1020.38 1020.62 1020.59 1020.70 1020.89 1020.89 1021.15 1021.31 1021.38 1021.43 1021.31 1021.41 1021.60 1021.68 1021.66 1021.77 1021.83 1021.95 1022.15 1022.20 1022.10 1021.80 1021.64 1021.61 1021.79 1021.76 1021.36 1021.12 1020.83 1020.39 1020.39 1020.27
1016.80 1017.37 1017.91 1018.40 1018.72 1019.14 1019.47 1019.70 1020.05 1020.34 1020.65 1020.86 1021.06 1021.11 1021.06 1021.19 1021.52 1021.72 1022.01 1022.18 1022.19 1022.28 1022.38 1022.54 1022.64 1022.63 1022.56 1022.50 1022.50 1022.32 1022.59 1022.63 1022.44 1022.22 1021.75 1021.52 1021.76 1021.68 1021.28 1020.90 1020.69 1020.54 1020.35
1017.05 1017.22 1017.72 1018.30 1018.57 1018.91 1019.32 1019.42 1019.90 1020.21 1020.88 1021.14 1021.27 1021.45 1021.51 1021.80 1021.97 1022.18 1022.48 1022.69 1022.79 1022.90 1023.13 1023.39 1023.49 1023.44 1023.50 1023.24 1023.27 1023.16 1022.73 1022.64 1022.48 1022.26 1022.40 1021.92 1021.54 1021.53 1021.27 1020.86 1020.83 1020.58 1020.36
1017.14 1017.51 1017.96 1018.34 1018.61 1019.02 1019.47 1019.67 1020.01 1020.62 1021.16 1021.30 1021.72 1022.29 1022.53 1022.71 1022.73 1023.00 1023.29 1023.38 1023.55 1023.77 1023.87 1024.19 1024.33 1024.34 1023.99 1023.80 1023.75 1023.76 1023.52 1023.14 1023.11 1022.34 1022.27 1022.09 1022.04 1021.81 1021.63 1021.04 1020.76 1020.72 1020.44
1017.74 1018.15 1018.28 1018.54 1018.77 1019.14 1019.40 1019.69 1020.30 1020.84 1021.42 1021.43 1021.66 1022.73 1023.11 1023.21 1023.34 1023.57 1023.79 1024.14 1024.34 1024.64 1024.71 1024.87 1025.02 1025.12 1025.14 1024.87 1024.58 1024.17 1023.92 1023.82 1024.01 1023.04 1022.76 1022.22 1021.92 1022.18 1021.98 1021.63 1020.93 1020.69 1020.42
1017.99 1018.51 1018.99 1019.46 1019.62 1019.82 1020.27 1020.33 1020.45 1021.22 1021.76 1021.88 1021.95 1022.43 1023.42 1023.87 1023.99 1024.20 1024.20 1024.35 1024.83 1024.90 1025.24 1025.41 1025.54 1025.63 1025.56 1025.48 1025.47 1025.24 1024.63 1024.48 1024.14 1023.92 1023.47 1022.86 1022.20 1022.20 1022.42 1022.11 1021.49 1020.97 1020.74
1018.20 1018.51 1019.14 1019.66 1020.13 1020.44 1020.51 1020.64 1020.76 1020.91 1021.48 1021.96 1021.92 1022.05 1023.21 1023.89 1024.38 1024.83 1025.19 1025.35 1025.51 1025.62 1025.70 1025.78 1025.90 1026.00 1026.01 1026.10 1025.98 1025.82 1025.22 1025.05 1024.57 1024.59 1024.04 1023.32 1022.71 1022.66 1023.05 1022.42 1021.94 1021.36 1021.00
1018.66 1018.69 1018.85 1019.49 1019.79 1020.21 1020.34 1020.50 1020.63 1020.84 1021.23 1021.93 1022.23 1022.18 1022.56 1022.88 1023.96 1025.36 1025.72 1025.93 1025.93 1026.08 1026.21 1026.26 1026.38 1026.15 1026.29 1026.47 1026.34 1026.16 1025.77 1025.52 1025.39 1025.45 1024.98 1024.07 1023.74 1023.08 1023.77 1022.76 1022.26 1021.77 1021.34
1018.77 1019.04 1019.07 1019.25 1019.66 1020.17 1020.48 1020.35 1020.52 1020.62 1020.70 1021.38 1021.75 1022.44 1022.98 1023.17 1023.27 1024.11 1025.60 1026.12 1026.21 1026.44 1026.62 1026.61 1026.61 1026.56 1026.56 1026.67 1026.58 1026.65 1026.21 1025.91 1025.93 1026.12 1025.70 1024.67 1024.20 1024.52 1024.29 1023.29 1022.61 1022.13 1021.67
1018.99 1019.25 1019.70 1019.57 1019.72 1020.21 1020.91 1021.10 1020.96 1021.01 1021.00 1021.33 1021.63 1021.84 1022.66 1023.23 1023.49 1023.72 1025.07 1025.97 1026.44 1026.89 1027.04 1027.47 1027.15 1026.86 1026.86 1026.70 1026.75 1026.69 1026.76 1026.63 1026.62 1026.25 1025.93 1025.47 1025.39 1025.15 1024.67 1024.06 1023.11 1022.40 1021.91
1019.50 1019.35 1020.16 1020.23 1019.87 1020.27 1020.82 1020.87 1021.00 1021.49 1021.47 1021.92 1022.18 1022.54 1022.56 1023.11 1023.45 1023.76 1024.45 1025.50 1026.09 1026.95 1027.09 1027.69 1027.72 1027.24 1027.04 1027.12 1027.21 1027.30 1027.13 1027.14 1026.88 1026.69 1026.39 1026.18 1026.13 1025.66 1025.18 1024.81 1023.80 1022.98 1022.52
1018.68 1019.61 1020.55 1020.72 1020.41 1020.70 1020.96 1021.01 1021.20 1021.61 1021.95 1022.46 1022.68 1022.79 1023.01 1023.24 1023.56 1023.73 1024.35 1025.17 1026.22 1026.48 1027.13 1027.64 1027.96 1027.88 1027.69 1027.47 1027.27 1027.29 1027.32 1027.37 1027.23 1027.26 1026.88 1026.88 1026.71 1026.25 1025.64 1025.26 1024.33 1023.48 1023.00
1018.29 1019.29 1019.70 1020.91 1020.86 1020.91 1021.61 1021.56 1021.74 1022.00 1022.35 1022.89 1022.84 1023.10 1023.42 1023.88 1023.95 1024.16 1024.60 1024.82 1025.41 1026.26 1026.91 1027.93 1028.00 1028.07 1028.03 1027.90 1027.72 1027.53 1027.27 1027.53 1027.61 1027.63 1027.35 1027.26 1027.36 1026.67 1026.24 1025.66 1024.87 1024.07 1023.65
1018.02 1019.40 1019.33 1020.92 1021.02 1021.12 1021.59 1021.94 1022.31 1022.84 1023.05 1023.16 1023.44 1023.37 1023.82 1024.02 1024.43 1024.76 1024.86 1025.07 1025.21 1025.54 1026.51 1027.33 1028.20 1028.25 1028.40 1028.02 1028.02 1027.70 1027.48 1027.42 1027.45 1027.52 1027.68 1027.53 1027.70 1027.40 1026.78 1026.12 1025.39 1024.55 1024.11
1018.73 1019.79 1019.71 1020.85 1021.31 1021.46 1022.02 1022.33 1022.77 1023.31 1023.43 1023.81 1024.05 1024.37 1024.42 1024.63 1025.01 1025.09 1025.13 1025.51 1025.82 1025.95 1026.47 1027.43 1028.08 1028.53 1028.52 1028.41 1028.20 1027.95 1027.71 1027.52 1027.59 1027.63 1028.02 1028.26 1028.08 1027.76 1027.23 1026.40 1025.89 1025.23 1024.69
1018.92 1019.41 1019.61 1020.21 1021.27 1021.99 1022.45 1022.90 1023.25 1023.49 1023.66 1023.95 1024.41 1024.58 1024.89 1025.38 1025.88 1025.93 1025.78 1025.92 1026.10 1026.38 1026.57 1027.26 1028.07 1028.51 1028.79 1028.95 1028.48 1028.22 1028.07 1027.80 1027.96 1028.28 1028.46 1028.60 1028.40 1028.07 1027.50 1027.01 1026.46 1025.81 1025.35
1018.94 1019.38 1019.82 1020.94 1021.42 1022.20 1022.63 1023.18 1023.42 1023.66 1024.30 1024.64 1024.60 1024.62 1025.45 1025.81 1026.05 1026.34 1026.45 1026.47 1026.55 1026.61 1026.88 1027.24 1028.22 1028.91 1029.32 1029.20 1028.67 1028.50 1028.40 1028.54 1028.52 1028.86 1028.79 1029.12 1028.98 1028.39 1027.92 1027.51 1026.94 1026.34 1025.96
1019.09 1019.81 1020.57 1021.43 1022.02 1022.50 1022.58 1023.06 1023.71 1024.44 1024.57 1025.21 1024.76 1025.16 1025.61 1025.89 1026.40 1026.81 1026.82 1026.93 1027.09 1026.92 1027.04 1027.49 1028.10 1029.07 1029.13 1029.41 1029.28 1029.00 1028.83 1029.12 1029.29 1029.25 1029.36 1029.68 1029.44 1028.99 1028.47 1028.01 1027.39 1026.81 1026.54
1019.31 1020.10 1020.89 1021.60 1022.29 1022.88 1023.05 1023.44 1023.87 1024.45 1025.17 1025.30 1025.55 1025.57 1026.01 1026.28 1026.40 1026.83 1027.22 1027.17 1027.17 1027.40 1027.51 1027.92 1028.60 1028.96 1029.42 1029.72 1029.48 1029.35 1029.17 1029.51 1029.94 1030.04 1030.06 1030.15 1029.90 1029.59 1029.09 1028.49 1027.90 1027.36 1027.14
1019.69 1020.24 1020.79 1021.26 1021.83 1022.34 1022.85 1023.61 1023.92 1024.72 1025.46 1025.64 1025.71 1025.92 1026.05 1026.40 1026.78 1026.95 1027.29 1027.19 1027.25 1027.41 1027.98 1028.29 1029.15 1029.71 1030.17 1030.14 1029.79 1029.55 1029.54 1029.40 1030.00 1030.56 1030.57 1030.77 1030.67 1030.26 1029.74 1029.07 1028.45 1027.93 1027.69
1019.72 1020.28 1020.80 1021.27 1021.93 1022.41 1022.74 1023.11 1024.05 1024.85 1025.55 1026.04 1026.49 1026.60 1026.74 1026.94 1027.38 1027.50 1027.61 1027.58 1027.50 1027.68 1028.19 1028.90 1029.69 1030.34 1030.28 1030.14 1029.80 1029.56 1029.68 1029.79 1030.43 1030.91 1030.97 1031.31 1031.28 1031.00 1030.55 1029.83 1029.09 1028.46 1028.13
1019.45 1020.00 1020.71 1021.28 1021.86 1022.36 1022.59 1023.14 1023.89 1024.88 1025.56 1026.16 1026.64 1027.09 1027.29 1027.47 1027.87 1028.11 1028.53 1028.64 1028.94 1029.53 1029.62 1029.49 1030.14 1030.60 1030.54 1029.90 1029.59 1029.70 1029.67 1030.22 1031.02 1031.24 1031.32 1031.50 1031.71 1031.70 1031.28 1030.73 1029.89 1029.29 1028.82
1019.45 1020.13 1020.66 1021.31 1021.77 1022.25 1022.70 1023.16 1024.04 1024.89 1025.83 1026.53 1027.14 1027.55 1027.73 1027.68 1027.58 1027.88 1028.82 1029.02 1029.60 1030.09 1029.94 1029.39 1029.64 1029.67 1029.62 1029.24 1029.11 1029.48 1029.91 1030.33 1031.11 1031.59 1031.71 1031.48 1031.81 1031.82 1031.55 1031.36 1030.87 1030.34 1029.75
1019.22 1020.01 1020.70 1021.19 1021.56 1022.06 1022.63 1023.38 1024.21 1024.88 1025.83 1026.75 1027.34 1027.61 1027.32 1027.70 1027.32 1027.88 1028.78 1029.17 1029.99 1030.69 1030.52 1030.33 1030.73 1030.42 1030.23 1029.93 1029.76 1030.37 1030.33 1030.62 1031.19 1031.69 1031.73 1031.47 1031.75 1031.77 1031.74 1031.77 1031.57 1031.25 1030.95
Wind_Speed
5 4 4 4 3 3 4 4 4 4 5 5 5 5 5 5 7 5 5 11 11 13 14 18 21 22 22 22 21 21 21 21 20 20 20 20 17 15 14 12 12 12 10
5 4 4 4 3 3 3 4 4 4 4 4 5 5 4 5 7 6 6 6 14 16 19 19 20 20 21 21 20 19 20 19 18 18 18 18 17 17 15 14 14 12 14
6 6 5 4 3 3 5 4 5 4 4 4 6 4 4 5 8 8 6 5 7 15 15 18 18 18 18 18 18 17 16 16 16 16 17 18 18 16 15 15 14 12 14
7 6 5 4 5 4 4 4 3 4 4 4 3 4 5 7 6 6 6 5 5 5 13 18 18 18 17 16 14 15 15 15 14 14 14 13 14 15 14 15 15 13 12
6 6 5 5 5 4 4 4 3 3 3 4 5 5 6 5 5 7 7 7 7 6 6 17 19 19 19 19 18 17 16 16 15 16 17 16 14 15 15 14 14 15 14
6 6 5 5 5 5 4 3 4 4 3 4 8 7 6 6 6 6 6 6 7 8 8 8 6 9 18 18 18 18 18 18 16 16 15 16 16 16 15 13 12 13 13
5 5 4 5 4 5 5 6 4 5 3 2 5 6 6 7 7 5 4 5 7 7 8 6 5 5 6 18 19 19 19 19 17 16 16 14 15 15 15 15 14 14 13
6 5 5 4 4 4 4 3 3 3 3 3 3 2 3 2 6 6 4 5 5 5 6 7 7 7 6 6 12 18 19 17 17 17 15 15 16 15 16 17 18 17 18
5 6 6 5 4 3 3 2 3 4 4 3 4 3 3 3 3 3 6 4 5 5 5 5 6 6 7 6 8 11 17 17 18 17 17 17 17 17 16 17 17 17 17
5 6 7 5 5 3 4 3 3 3 3 3 2 4 4 3 4 3 2 3 3 4 4 4 4 6 7 5 10 14 16 17 17 17 17 18 17 18 18 17 18 18 17
5 5 5 6 5 3 3 4 4 4 3 4 3 3 2 3 3 4 3 3 2 3 3 3 3 3 5 4 5 10 15 16 16 17 16 18 18 17 17 17 17 17 17
3 4 4 5 5 5 4 3 3 5 4 4 2 3 2 2 2 3 3 2 3 2 3 3 3 3 3 4 8 13 14 14 15 16 18 18 17 17 18 18 17 18 19
2 4 3 3 4 5 5 4 5 5 4 4 4 3 3 3 2 2 3 2 3 2 2 2 3 3 4 3 5 9 12 12 15 16 16 17 17 18 19 19 18 18 19
6 5 3 3 5 5 4 5 4 4 5 4 7 5 4 3 2 2 3 4 2 2 1 3 3 3 3 2 6 10 7 12 14 15 16 16 17 17 18 18 19 19 19
7 7 7 5 5 6 4 5 4 5 5 4 5 5 4 3 4 4 3 2 3 4 2 0 2 4 3 3 4 3 4 10 11 13 14 15 16 17 17 17 18 18 19
8 7 8 5 5 6 5 5 5 4 6 3 3 6 4 3 5 3 3 2 2 2 4 2 1 2 3 3 5 3 3 8 9 11 12 14 14 15 17 16 19 18 19
8 7 7 6 5 6 5 5 5 5 7 6 4 5 7 5 4 3 3 3 3 2 2 2 2 1 3 3 4 5 5 7 5 10 10 12 13 14 16 17 19 17 18
8 8 8 8 7 5 4 5 5 5 6 6 5 6 6 4 4 4 3 4 3 2 1 3 2 2 3 2 2 6 6 6 5 9 10 12 12 13 15 18 17 17 17
9 9 9 8 8 6 6 5 6 7 5 5 5 6 4 4 3 2 3 2 2 2 2 2 3 1 2 3 3 3 5 6 5 8 11 10 11 13 13 17 19 16 16
9 9 8 6 6 5 7 8 7 6 6 4 7 7 5 5 4 3 3 2 1 3 3 4 3 2 3 3 2 2 3 5 4 5 9 8 10 14 16 15 16 15 19
9 9 9 8 8 6 4 7 7 7 6 6 6 7 6 7 8 5 2 2 3 2 3 3 3 2 2 2 1 2 1 2 4 4 5 5 5 6 8 12 14 14 19
9 9 8 9 8 5 13 13 9 7 6 6 7 6 6 8 9 9 9 8 5 3 3 3 2 3 2 1 0 1 1 3 3 3 2 5 5 6 7 7 18 14 18
9 9 8 8 7 6 13 13 13 7 7 5 4 5 5 4 6 6 11 14 16 16 10 5 6 2 2 2 1 2 2 3 2 1 1 4 4 5 5 7 17 16 18
8 8 8 8 8 6 15 16 15 7 6 5 4 3 4 4 5 6 6 6 6 6 5 4 4 3 3 3 4 2 3 6 3 2 2 2 2 3 4 6 16 17 17
7 7 8 9 8 8 16 18 12 8 6 6 4 3 4 5 8 11 6 6 5 4 4 4 7 7 9 13 5 3 4 3 1 1 3 2 1 1 2 6 6 14 17
9 7 8 8 12 9 18 17 13 6 7 5 3 2 9 6 8 10 6 6 5 1 2 4 4 5 7 8 14 6 1 2 2 1 1 2 2 1 1 3 6 6 5
Wind_Direction
138 133 128 122 118 118 96 91 86 77 70 66 54 64 64 76 84 84 74 62 58 65 75 77 80 76 70 64 58 57 54 51 50 47 47 44 42 37 27 27 27 5 293
138 130 120 109 90 82 81 91 77 71 65 63 65 55 70 89 92 89 94 64 58 60 64 74 75 75 73 67 59 53 48 42 35 36 36 35 31 28 28 28 26 17 6
132 128 122 109 99 84 94 80 65 68 55 50 60 60 69 88 97 89 69 63 58 72 76 71 72 68 64 63 61 56 50 43 41 40 35 25 18 14 8 13 20 13 10
137 134 131 130 134 111 109 96 89 73 68 65 67 45 85 92 87 79 70 65 60 57 70 77 73 68 64 61 56 53 43 32 25 24 24 23 12 3 3 7 6 360 3
145 138 137 141 134 122 121 126 80 103 93 93 85 63 64 72 72 82 76 71 72 64 74 76 69 62 57 52 45 40 39 34 29 24 15 12 9 5 4 6 360 352 344
144 130 118 126 129 123 119 92 96 62 90 92 86 66 52 50 54 53 64 70 64 64 70 65 51 54 62 58 50 39 33 32 29 36 27 22 17 16 12 6 358 353 342
111 114 114 126 135 133 142 131 105 109 84 114 116 82 61 58 59 54 63 62 64 63 69 68 64 53 45 53 47 42 34 28 18 26 25 27 25 17 10 3 2 359 348
109 108 110 105 102 106 107 110 114 115 78 8 109 102 127 73 45 41 49 77 71 80 73 63 65 65 56 49 46 40 35 28 26 23 21 22 26 20 13 9 2 356 355
114 117 104 107 92 82 117 115 130 141 139 50 53 133 114 170 136 28 37 47 63 73 75 77 72 70 61 57 50 36 42 35 32 26 24 22 23 22 10 8 1 1 358
107 117 122 126 122 127 124 130 133 136 121 138 82 46 54 128 147 130 38 43 69 83 78 65 70 75 68 57 52 54 47 39 30 22 15 17 13 12 359 2 360 355 351
119 118 127 127 114 109 105 118 131 133 130 141 135 134 81 57 82 135 159 157 73 59 83 85 93 88 83 82 59 45 50 43 35 27 19 20 17 10 4 5 3 359 358
100 99 108 117 112 104 97 93 82 79 84 86 102 117 138 152 174 125 110 107 126 77 69 47 56 74 65 48 67 61 51 45 35 31 26 22 18 13 10 6 6 7 4
143 116 123 133 121 124 129 118 95 79 74 87 96 88 89 92 116 101 106 123 141 150 116 51 31 43 77 62 62 62 62 51 45 41 34 27 21 18 14 8 10 11 9
146 138 115 107 110 114 117 109 101 93 85 89 90 84 87 68 69 97 130 137 104 116 119 142 43 35 41 90 91 83 65 58 51 45 38 29 22 18 15 12 13 15 12
140 141 135 142 124 112 110 103 101 97 101 94 90 88 85 60 58 66 76 102 146 163 142 175 138 25 18 51 84 75 75 87 72 52 44 35 24 21 18 17 13 21 19
117 134 125 133 130 117 120 115 101 97 105 93 94 94 85 74 63 55 71 74 74 132 137 135 88 97 22 59 24 39 75 74 79 69 47 33 28 23 20 20 17 23 28
124 136 122 123 116 110 111 104 106 112 99 89 68 75 76 63 65 62 75 76 75 64 116 109 100 37 62 44 31 26 80 66 56 62 60 39 29 28 22 24 19 25 39
134 136 123 118 122 118 113 118 116 109 105 101 109 98 84 82 62 44 52 77 82 65 116 133 124 64 69 2 34 59 43 46 36 64 60 47 34 31 27 25 23 29 45
135 131 121 129 132 133 125 114 106 102 111 111 99 85 86 98 101 87 74 74 66 73 89 119 121 61 88 22 38 47 54 38 44 68 63 47 33 35 35 27 23 33 44
123 121 116 108 92 99 111 114 116 114 101 113 100 104 100 102 111 100 89 74 108 110 101 108 99 122 65 32 43 45 71 51 45 36 55 45 37 34 31 31 22 32 45
131 127 123 120 121 115 114 123 129 127 140 117 105 96 105 114 97 91 115 135 136 121 108 99 96 85 49 17 40 29 96 98 54 25 66 36 26 24 18 14 18 53 51
132 133 140 147 145 144 151 148 131 132 136 124 116 108 97 95 96 99 83 91 108 126 123 106 90 92 89 347 309 169 122 143 143 44 74 51 21 28 12 19 18 58 62
147 150 147 142 137 138 158 149 134 132 136 124 128 133 127 127 107 87 80 73 75 79 82 97 110 127 142 222 184 162 139 90 107 73 116 65 19 37 4 6 22 58 65
154 152 147 144 143 150 154 153 140 122 115 110 125 144 138 129 136 116 105 85 68 58 60 90 116 178 233 249 179 141 94 103 91 66 338 118 6 55 8 16 24 32 52
148 153 153 151 149 159 160 150 131 122 120 120 129 142 150 149 163 137 118 101 73 41 0 90 150 102 56 50 77 154 161 157 109 27 1 125 136 88 29 29 21 32 35
159 153 151 155 161 155 163 155 138 135 131 142 152 184 165 172 177 144 132 129 114 241 58 45 11 20 38 53 55 50 144 133 120 123 308 135 171 194 116 37 31 30 24